Flag for Germany Weather past 2 weeks in Hofheim am Taunus, Hesse, Germany

Now
55 °F

Clear.


Feels Like: 55 °F
Forecast: 55 / 68 °F
Wind: 1 mph from West

Location: Wiesbaden Airport

Current Time: Oct 1, 2014 at 6:56:53 AM

Latest Report: Oct 1, 2014 at 5:58 AM


Visibility: N/A

Pressure: 30.31 "Hg

Humidity: 100%

Dew point: 55 °F

Location of Hofheim am TaunusLocation

Historic Weather in Hofheim am Taunus — Graph

°F

Hofheim am Taunus temperature yesterday

Maximum temperature yesterday: 70 °F (at 4:58 PM)
Minimum temperature yesterday: 58 °F (at 7:58 AM)
Average temperature yesterday: 64 °F

Past Weeks' High & Low Weather Summary

 TemperatureHumidityPressure
High77 °F (Sep 17, 3:58 PM)100% (Sep 19, 6:58 AM)30.39 "Hg (Sep 19, 6:58 AM)
Low43 °F (Sep 23, 5:58 AM)49% (Sep 17, 4:58 PM)29.86 "Hg (Sep 18, 2:58 AM)
Average61 °F83%30.10 "Hg
* Reported Sep 16 5:58 AM — Oct 1 5:58 AM, Hofheim am Taunus, Weather by CustomWeather, © 2014

Note: Actual official high and low records may vary slightly from our data, if they occured in-between our weather recording intervals... More about our weather records

Advertising

Hofheim am Taunus weather history for previous 24 hours

 ConditionsComfort  
Time TempWeatherWind HumidityBarometerVisibility
5:58 AM
Oct 1
55 °FClear.1 mph100%30.31 "HgN/A
4:58 AM55 °FClear.No wind100%30.31 "HgN/A
4:04 AM57 °FPassing clouds.No wind94%30.31 "HgN/A
3:58 AM58 °FPassing clouds.No wind98%30.31 "HgN/A
2:58 AM58 °FPassing clouds.No wind99%30.31 "HgN/A
1:58 AM59 °FOvercast.No wind94%30.31 "HgN/A
12:58 AM59 °FOvercast.2 mph97%30.30 "HgN/A
12:02 AM57 °FPassing clouds.No wind100%30.31 "HgN/A
11:58 PM
Sep 30
59 °FPassing clouds.No wind94%30.31 "HgN/A
10:58 PM60 °FOvercast.1 mph94%30.31 "HgN/A
9:58 PM63 °FOvercast.5 mph88%30.30 "HgN/A
8:58 PM64 °FOvercast.5 mph88%30.30 "HgN/A
7:58 PM66 °FOvercast.3 mph78%30.29 "HgN/A
6:58 PM68 °FOvercast.2 mph73%30.29 "HgN/A
5:58 PM69 °FMostly cloudy.3 mph70%30.28 "HgN/A
4:58 PM70 °FOvercast.8 mph69%30.27 "HgN/A
3:58 PM69 °FBroken clouds.6 mph71%30.27 "HgN/A
2:58 PM68 °FPartly sunny.5 mph73%30.29 "HgN/A
1:59 PM68 °FPartly sunny.5 mph73%30.29 "HgN/A
1:58 PM68 °FScattered clouds.5 mph73%30.29 "HgN/A
12:58 PM67 °FScattered clouds.No wind72%30.29 "HgN/A
11:58 AM67 °FPartly sunny.3 mph73%30.29 "HgN/A
10:58 AM65 °FScattered clouds.No wind83%30.29 "HgN/A
9:58 AM63 °FOvercast.1 mph88%30.29 "HgN/A
8:58 AM61 °FPartly sunny.3 mph92%30.28 "HgN/A
7:58 AM58 °FMostly cloudy.2 mph96%30.27 "HgN/A
6:58 AM60 °FMostly cloudy.2 mph94%30.24 "HgN/A
Weather by CustomWeather, © 2014

See weather overviewHow to use our weather pages